[[{"header":{"parameterUnit":"m.s-1","parameterCategory":1,"la1":30.2991,"la2":30.254,"lo1":-89.0895,"lo2":-89.0444,"dy":0.0017,"dx":0.0017,"nx":28,"ny":28,"refTime":"2024-08-18T09:00:00:Z","depth":0,"parameterNumber":2,"parameterNumberName":"U-component_of_WINDS"},"data":[0,0,0,0,0,0,0,0,0,0,0,0,0,0,0,0,0,0,0,0,0,0,0,0,0,0,0,0,0,0,0,0,0,0,0,0,0,0,0,0,0,0,0,0,0,0,0,0,0,0,0,0,0,0,0,0,0,0,1.6674,1.6675,0,1.6719,1.6719,1.672,1.6712,1.6711,1.671,1.671,1.6753,1.6755,1.6757,0,0,0,0,0,0,0,0,0,0,0,0,0,1.658,1.6582,1.6674,1.6675,1.6675,1.6719,1.6719,1.672,1.6712,1.6711,1.671,1.6709,1.6752,1.6754,1.6757,0,0,0,0,0,0,0,0,0,0,0,0,0,1.6622,1.6582,1.6674,1.6677,1.6677,1.6719,1.6719,1.672,1.6712,1.6711,1.671,1.6709,1.6751,1.6754,1.6757,1.6798,0,0,1.6766,1.6767,0,0,0,0,0,0,0,0,1.662,1.6626,1.6676,1.6676,1.6677,1.6709,1.6702,1.6746,1.6712,1.6699,1.6709,1.6708,1.6739,1.6743,1.6754,1.68,1.6802,1.6766,1.6768,1.6769,1.677,0,0,0,0,0,0,0,1.6617,1.6624,1.6692,1.6676,1.6677,1.6675,1.668,1.671,1.6725,1.67,1.6699,1.6705,1.6739,1.6751,1.6755,1.6803,1.6766,1.6768,1.677,1.6771,1.6886,1.6887,0,0,0,0,0,0,1.6614,1.6621,1.669,1.6693,1.6645,1.6678,1.6683,1.67,1.6725,1.6727,1.6706,1.6704,1.6747,1.6751,1.6756,1.6806,1.6769,1.6771,1.6773,1.6884,1.6886,1.6887,0,0,0,0,0,0,1.6612,1.662,1.6689,1.6657,1.6666,1.668,1.6699,1.6701,1.6713,1.6729,1.6731,1.6715,1.6746,1.6752,1.6788,1.6807,1.6773,1.6775,1.6883,1.6885,1.6887,1.6905,0,0,0,0,0,0,1.6609,1.6619,1.6635,1.6658,1.6668,1.672,1.6701,1.6703,1.6718,1.6717,1.6739,1.6741,1.6745,1.6784,1.6791,1.681,1.6778,1.6881,1.6884,1.6886,1.6903,1.6908,1.6912,0,0,0,0,0,1.6606,1.6638,1.6636,1.6644,1.6688,1.6721,1.6727,1.6732,1.672,1.6736,1.6746,1.674,1.6804,1.6788,1.6795,1.6816,1.688,1.6883,1.6886,1.6901,1.6907,1.6912,0,0,0,0,0,0,1.6616,1.6641,1.6639,1.668,1.6699,1.672,1.674,1.6738,1.676,1.6757,1.6762,1.6767,1.6803,1.6814,1.6794,1.6857,1.684,1.6845,1.6849,1.6855,1.6859,1.6855,1.678,0,0,0,0,0,1.6624,1.6649,1.6669,1.6703,1.6713,1.6725,1.674,1.6742,1.6762,1.6769,1.6782,1.6801,1.6825,1.6841,1.6864,1.6905,1.691,1.6923,1.6928,1.6931,1.6935,1.6957,1.6964,1.6897,1.6897,1.6897,0,0,1.6638,1.6655,1.6671,1.6706,1.6721,1.6747,1.6732,1.676,1.6779,1.6773,1.6808,1.6818,1.6839,1.6878,1.6896,1.6888,1.6955,1.6935,1.6938,1.6939,1.6961,1.6967,1.6973,1.6899,1.6899,1.6899,0,0,1.6678,1.6694,1.6724,1.674,1.6763,1.6771,1.6778,1.6801,1.6808,1.6843,1.684,1.6862,1.6904,1.6919,1.6932,1.698,1.6975,1.6987,1.701,1.7032,1.7037,1.7042,1.7058,1.7064,1.6991,1.6991,1.6991,0,1.6693,1.6733,1.674,1.6768,1.6784,1.6782,1.6812,1.6827,1.6856,1.6866,1.6857,1.691,1.6924,1.6966,1.6978,1.6989,1.6997,1.6984,1.7036,1.7041,1.7045,1.7061,1.7067,1.6993,1.6992,1.6992,1.6992,0,1.675,1.6778,1.6799,1.6829,1.6847,1.6876,1.6887,1.6905,1.6906,1.6915,1.6951,1.6968,1.6995,1.7006,1.7007,1.7049,1.7043,1.7035,1.7017,1.7052,1.7067,1.7074,1.6994,1.6994,1.6994,1.6993,0,0,1.6796,1.6831,1.6838,1.6852,1.6878,1.6899,1.6929,1.6956,1.6971,1.6992,1.7016,1.7052,1.7045,1.706,1.7064,1.7083,1.712,1.7073,1.7073,1.708,1.7166,1.7171,1.7178,1.7117,1.7119,1.712,1.7164,0,1.6838,1.6891,1.6898,1.6945,1.697,1.6969,1.6995,1.7014,1.7023,1.7046,1.7056,1.7082,1.7071,1.708,1.71,1.7111,1.7137,1.7108,1.7139,1.714,1.7133,1.7186,1.7191,1.7233,1.717,1.7171,1.7172,0,1.6893,1.6917,1.6966,1.699,1.7001,1.7024,1.705,1.7072,1.7093,1.7099,1.7117,1.7118,1.7148,1.7131,1.7172,1.7153,1.7166,1.7174,1.7175,1.7177,1.7157,1.7189,1.7246,1.7252,1.7181,1.7181,1.718,0,1.6921,1.6965,1.7,1.7012,1.7041,1.7057,1.707,1.709,1.7106,1.7129,1.714,1.7165,1.7179,1.7199,1.7207,1.7194,1.7248,1.7231,1.7253,1.7253,1.7263,1.7262,1.7322,1.7274,1.7274,1.7273,1.7273,0,1.6966,1.6996,1.7013,1.7035,1.7069,1.7077,1.711,1.7122,1.7141,1.7164,1.7165,1.7187,1.7197,1.722,1.7227,1.726,1.7266,1.7271,1.7272,1.7271,1.727,1.7278,1.7275,1.7275,1.7275,1.7274,1.7274,0,1.7002,1.7015,1.7053,1.7078,1.7085,1.7109,1.713,1.715,1.7161,1.719,1.7198,1.7214,1.7241,1.7252,1.7286,1.729,1.7328,1.7328,1.7321,1.7321,1.7342,1.7339,1.7409,1.7418,1.7364,1.7365,1.7365,0,1.703,1.7053,1.7081,1.7097,1.711,1.7137,1.7154,1.7164,1.7181,1.7208,1.7226,1.7254,1.7276,1.7321,1.7335,1.7361,1.736,1.7383,1.7364,1.7361,1.7359,1.7357,1.736,1.7386,1.7386,1.7387,1.7387,0,1.7077,1.7082,1.7107,1.7135,1.7155,1.7177,1.7198,1.7212,1.7225,1.7244,1.7273,1.7291,1.7327,1.7354,1.7381,1.7393,1.7392,1.7393,1.7399,1.7397,1.7392,1.7394,1.733,1.7391,1.7391,1.739,1.739,1.739,1.7108,1.7129,1.7152,1.718,1.7198,1.7218,1.7239,1.7252,1.7277,1.7307,1.7311,1.7342,1.7364,1.74,1.7414,1.7438,1.7432,1.7441,1.7443,1.7445,1.7446,1.739,1.7443,1.7443,1.7443,1.7443,1.7443,0,1.7155,1.717,1.7196,1.7226,1.7248,1.7247,1.7271,1.7289,1.7317,1.7337,1.736,1.7394,1.7421,1.7438,1.7466,1.7482,1.7482,1.7489,1.7487,1.749,1.7451,1.7442,1.7488,1.7488,1.7488,1.7488,1.7488,1.7488,1.7181,1.7216,1.7225,1.7269,1.7284,1.7315,1.7328,1.7347,1.7364,1.7402,1.7425,1.7436,1.7456,1.7485,1.751,1.7514,1.7524,1.7531,1.7534,1.7497,1.7492,1.7488,1.748,1.7533,1.7533,1.7571,1.7571,1.7572]},{"header":{"parameterUnit":"m.s-1","parameterCategory":1,"la1":30.2991,"la2":30.254,"lo1":-89.0895,"lo2":-89.0444,"dy":0.0017,"dx":0.0017,"nx":28,"ny":28,"refTime":"2024-08-18T09:00:00:Z","depth":0,"parameterNumber":3,"parameterNumberName":"V-component_of_WINDS"},"data":[0,0,0,0,0,0,0,0,0,0,0,0,0,0,0,0,0,0,0,0,0,0,0,0,0,0,0,0,0,0,0,0,0,0,0,0,0,0,0,0,0,0,0,0,0,0,0,0,0,0,0,0,0,0,0,0,0,0,-4.1975,-4.1977,0,-4.2169,-4.2171,-4.2173,-4.2143,-4.214,-4.2136,-4.2133,-4.233,-4.2338,-4.2346,0,0,0,0,0,0,0,0,0,0,0,0,0,-4.1579,-4.1586,-4.1975,-4.1978,-4.198,-4.2169,-4.2171,-4.2174,-4.2143,-4.2139,-4.2135,-4.2132,-4.2327,-4.2337,-4.2347,0,0,0,0,0,0,0,0,0,0,0,0,0,-4.1759,-4.1589,-4.1975,-4.1988,-4.1991,-4.2168,-4.2171,-4.2175,-4.2144,-4.2139,-4.2134,-4.213,-4.2324,-4.2336,-4.2349,-4.2525,0,0,-4.2387,-4.2392,0,0,0,0,0,0,0,0,-4.1749,-4.1774,-4.1983,-4.1987,-4.1991,-4.2127,-4.2104,-4.2292,-4.2146,-4.2086,-4.2133,-4.2127,-4.2266,-4.2283,-4.233,-4.2534,-4.2543,-4.2388,-4.2395,-4.2401,-4.2404,0,0,0,0,0,0,0,-4.1737,-4.1766,-4.2052,-4.1986,-4.1991,-4.1984,-4.2004,-4.2139,-4.2202,-4.2091,-4.2089,-4.2112,-4.2267,-4.2319,-4.2335,-4.2546,-4.2388,-4.2399,-4.2406,-4.2411,-4.2906,-4.2911,0,0,0,0,0,0,-4.1721,-4.1755,-4.2046,-4.2058,-4.1855,-4.1995,-4.2017,-4.2088,-4.22,-4.2212,-4.2116,-4.211,-4.23,-4.232,-4.2342,-4.2558,-4.2401,-4.2412,-4.242,-4.29,-4.2907,-4.2913,0,0,0,0,0,0,-4.1712,-4.1747,-4.2038,-4.1906,-4.1943,-4.2007,-4.2087,-4.2095,-4.2146,-4.222,-4.223,-4.2157,-4.2297,-4.2324,-4.248,-4.2564,-4.2418,-4.2429,-4.2894,-4.2902,-4.291,-4.299,0,0,0,0,0,0,-4.1701,-4.1744,-4.1812,-4.1908,-4.195,-4.2174,-4.2092,-4.2102,-4.2167,-4.2161,-4.2261,-4.2272,-4.2295,-4.2462,-4.2493,-4.2579,-4.2439,-4.2886,-4.2898,-4.2908,-4.298,-4.3,-4.3017,0,0,0,0,0,-4.1687,-4.1826,-4.1815,-4.1851,-4.2036,-4.2179,-4.2202,-4.2226,-4.2174,-4.2243,-4.2291,-4.2269,-4.2549,-4.2478,-4.2513,-4.2603,-4.2881,-4.2894,-4.2907,-4.2972,-4.2996,-4.3016,0,0,0,0,0,0,-4.1737,-4.1839,-4.1828,-4.2002,-4.2082,-4.2173,-4.2261,-4.225,-4.2346,-4.2336,-4.236,-4.2383,-4.2542,-4.2588,-4.2507,-4.2781,-4.2708,-4.2728,-4.2746,-4.2769,-4.2787,-4.2774,-4.245,0,0,0,0,0,-4.1769,-4.1876,-4.1959,-4.2104,-4.2145,-4.2196,-4.2259,-4.227,-4.2354,-4.2387,-4.2446,-4.2528,-4.2634,-4.2704,-4.2806,-4.2986,-4.3008,-4.3065,-4.3084,-4.3098,-4.3116,-4.3217,-4.3244,-4.2955,-4.2955,-4.2955,0,0,-4.1834,-4.1903,-4.1969,-4.2116,-4.2179,-4.2291,-4.2225,-4.2344,-4.2428,-4.2405,-4.2557,-4.2603,-4.2696,-4.2865,-4.2943,-4.2908,-4.3201,-4.3115,-4.3126,-4.3136,-4.3233,-4.326,-4.3284,-4.2964,-4.2962,-4.2961,0,0,-4.2012,-4.2074,-4.2203,-4.2268,-4.2365,-4.2398,-4.2429,-4.2522,-4.2553,-4.2705,-4.2692,-4.279,-4.2972,-4.304,-4.3098,-4.3302,-4.3286,-4.3334,-4.3431,-4.3529,-4.3552,-4.3572,-4.3647,-4.3673,-4.3351,-4.3351,-4.3351,0,-4.2082,-4.2249,-4.2271,-4.2393,-4.2459,-4.2444,-4.2576,-4.2637,-4.2762,-4.2808,-4.2767,-4.2998,-4.3059,-4.3245,-4.3295,-4.3341,-4.3378,-4.3324,-4.3547,-4.3567,-4.3587,-4.3658,-4.3686,-4.3357,-4.3356,-4.3356,-4.3355,0,-4.2331,-4.2447,-4.254,-4.2662,-4.2738,-4.2864,-4.2905,-4.2979,-4.2984,-4.3021,-4.3178,-4.3251,-4.3368,-4.3412,-4.3417,-4.36,-4.3576,-4.3541,-4.3469,-4.3619,-4.3687,-4.3715,-4.3364,-4.3362,-4.3361,-4.336,0,0,-4.2546,-4.268,-4.2714,-4.277,-4.2876,-4.2966,-4.3092,-4.3207,-4.3271,-4.3358,-4.3465,-4.362,-4.3589,-4.3655,-4.3667,-4.3753,-4.3912,-4.3707,-4.371,-4.3745,-4.412,-4.4147,-4.4179,-4.3902,-4.3907,-4.3911,-4.4113,0,-4.2735,-4.2959,-4.2982,-4.3182,-4.329,-4.3278,-4.3388,-4.3465,-4.3503,-4.3601,-4.3643,-4.3754,-4.3703,-4.3743,-4.3827,-4.3875,-4.3988,-4.386,-4.4003,-4.4007,-4.3982,-4.4214,-4.4243,-4.443,-4.4139,-4.4144,-4.4147,0,-4.2986,-4.3082,-4.3292,-4.3385,-4.3431,-4.353,-4.3639,-4.3732,-4.3819,-4.3841,-4.3915,-4.3917,-4.4047,-4.3968,-4.4148,-4.4061,-4.412,-4.4153,-4.4161,-4.4176,-4.4088,-4.4238,-4.449,-4.4519,-4.4189,-4.4185,-4.4182,0,-4.3125,-4.3306,-4.3456,-4.3504,-4.3615,-4.3685,-4.3734,-4.3817,-4.3885,-4.398,-4.4025,-4.4133,-4.4192,-4.4276,-4.4307,-4.4246,-4.4487,-4.441,-4.451,-4.4509,-4.4562,-4.4559,-4.483,-4.4597,-4.4596,-4.4596,-4.4595,0,-4.3335,-4.3465,-4.352,-4.3613,-4.3758,-4.3784,-4.3927,-4.3973,-4.4047,-4.4148,-4.4143,-4.4238,-4.4272,-4.4373,-4.4397,-4.4544,-4.457,-4.4593,-4.4598,-4.4595,-4.4592,-4.4635,-4.4624,-4.4603,-4.4602,-4.46,-4.4599,0,-4.3516,-4.3557,-4.372,-4.3813,-4.3839,-4.3942,-4.4021,-4.4111,-4.4148,-4.4276,-4.4308,-4.4366,-4.4485,-4.4524,-4.4666,-4.4683,-4.4855,-4.4848,-4.4826,-4.4828,-4.4926,-4.4917,-4.5236,-4.528,-4.5016,-4.5018,-4.502,0,-4.3648,-4.3748,-4.3851,-4.392,-4.3972,-4.4081,-4.4152,-4.4181,-4.4254,-4.4362,-4.4439,-4.4557,-4.4653,-4.4843,-4.4898,-4.5008,-4.5005,-4.5109,-4.5021,-4.5015,-4.5009,-4.5004,-4.5015,-4.5126,-4.5128,-4.5131,-4.5132,0,-4.388,-4.3896,-4.3997,-4.4108,-4.4192,-4.428,-4.4364,-4.442,-4.4461,-4.4544,-4.4666,-4.4741,-4.4887,-4.5005,-4.5117,-4.5168,-4.5158,-4.5159,-4.5189,-4.5187,-4.5172,-4.5184,-4.4874,-4.5152,-4.515,-4.5149,-4.5148,-4.5147,-4.4042,-4.4131,-4.4218,-4.4333,-4.4399,-4.4479,-4.4568,-4.4617,-4.4719,-4.4842,-4.4852,-4.4985,-4.507,-4.522,-4.5276,-4.538,-4.535,-4.5392,-4.5403,-4.5414,-4.5423,-4.5153,-4.54,-4.5399,-4.5399,-4.5399,-4.5398,0,-4.4275,-4.4331,-4.4436,-4.4555,-4.4645,-4.4628,-4.4721,-4.4797,-4.4914,-4.4995,-4.509,-4.5231,-4.5345,-4.5409,-4.5524,-4.5595,-4.5593,-4.5624,-4.562,-4.5632,-4.5442,-4.5406,-4.5623,-4.5623,-4.5623,-4.5623,-4.5623,-4.5623,-4.4407,-4.4558,-4.4585,-4.4769,-4.4823,-4.4954,-4.5009,-4.5082,-4.5147,-4.5305,-4.5401,-4.5442,-4.5517,-4.5636,-4.5741,-4.5756,-4.58,-4.5834,-4.5847,-4.5668,-4.5645,-4.5624,-4.559,-4.5843,-4.5843,-4.603,-4.6032,-4.6033]}]]